,,PA_Meas_PMT16A,,PR_Meas_QMR101_102,,RH_Meas_QMH101,,SR_Meas_QMS101,,TA_Meas_QMH101,,GenWind,,GenWind,
time,status,PA,status,PR,status,RH,status,SR,status,TA,status,DirAvg,status,SpdAvg,
2011-07-09, 00:00:04,VALID,918.609,VALID,0,VALID,94.4084,VALID,0,VALID,20.9674,VALID,350,VALID,0,
2011-07-09, 00:01:04,VALID,918.616,VALID,0,VALID,94.2559,VALID,0,VALID,20.9284,VALID,350,VALID,0,
2011-07-09, 00:02:04,VALID,918.582,VALID,0,VALID,94.2788,VALID,0,VALID,20.9674,VALID,350,VALID,0.117969,
2011-07-09, 00:03:04,VALID,918.54,VALID,0,VALID,94.2178,VALID,0.107441,VALID,21.0064,VALID,350,VALID,0,
2011-07-09, 00:04:04,VALID,918.528,VALID,0,VALID,93.9891,VALID,0,VALID,21.047,VALID,350,VALID,0.223047,
2011-07-09, 00:05:04,VALID,918.513,VALID,0,VALID,93.7756,VALID,0,VALID,21.0649,VALID,350,VALID,0.116406,
2011-07-09, 00:06:04,VALID,918.534,VALID,0,VALID,93.9586,VALID,0,VALID,21.1039,VALID,350,VALID,0.126563,
2011-07-09, 00:07:04,VALID,918.503,VALID,0,VALID,93.9434,VALID,0,VALID,21.1039,VALID,350,VALID,0.126563,
2011-07-09, 00:08:04,VALID,918.488,VALID,0,VALID,93.9357,VALID,0.107441,VALID,21.1429,VALID,350,VALID,0.1,
2011-07-09, 00:09:04,VALID,918.439,VALID,0,VALID,93.9052,VALID,0,VALID,21.164,VALID,350,VALID,0,
2011-07-09, 00:10:04,VALID,918.419,VALID,0,VALID,93.4326,VALID,0.107441,VALID,21.125,VALID,350,VALID,0,
2011-07-09, 00:11:04,VALID,918.415,VALID,0,VALID,93.0209,VALID,0,VALID,21.0844,VALID,350,VALID,0,
2011-07-09, 00:12:04,VALID,918.371,VALID,0,VALID,92.9294,VALID,0,VALID,21.0844,VALID,350,VALID,0,
2011-07-09, 00:13:04,VALID,918.341,VALID,0,VALID,93.059,VALID,0.107441,VALID,21.125,VALID,350,VALID,0,
2011-07-09, 00:14:04,VALID,918.34,VALID,0,VALID,93.1276,VALID,0.107441,VALID,21.1039,VALID,350,VALID,0,
2011-07-09, 00:15:04,VALID,918.318,VALID,0,VALID,93.1581,VALID,0.107441,VALID,21.1039,VALID,350,VALID,0,
2011-07-09, 00:16:04,VALID,918.298,VALID,0,VALID,92.7846,VALID,0.107441,VALID,21.0649,VALID,350,VALID,0,
2011-07-09, 00:17:04,VALID,918.318,VALID,0,VALID,92.0299,VALID,0.107441,VALID,20.9674,VALID,350,VALID,0,
2011-07-09, 00:18:04,VALID,918.278,VALID,0,VALID,92.7541,VALID,0.107441,VALID,20.9674,VALID,350,VALID,0,
2011-07-09, 00:19:04,VALID,918.273,VALID,0,VALID,93.2954,VALID,0,VALID,20.9674,VALID,350,VALID,0,
2011-07-09, 00:20:04,VALID,918.242,VALID,0,VALID,93.5393,VALID,0.107441,VALID,20.9284,VALID,350,VALID,0,
2011-07-09, 00:21:04,VALID,918.181,VALID,0,VALID,93.3487,VALID,0.107441,VALID,20.8293,VALID,350,VALID,0,
2011-07-09, 00:22:04,VALID,918.158,VALID,0,VALID,93.4859,VALID,0,VALID,20.8113,VALID,350,VALID,0,
2011-07-09, 00:23:04,VALID,918.167,VALID,0,VALID,93.7299,VALID,0.107441,VALID,20.7723,VALID,350,VALID,0.308203,
2011-07-09, 00:24:04,VALID,918.097,VALID,0,VALID,93.9052,VALID,0.107441,VALID,20.7138,VALID,350,VALID,0.286719,
2011-07-09, 00:25:04,VALID,918.113,VALID,0,VALID,93.9967,VALID,0.107441,VALID,20.6553,VALID,350,VALID,0.115234,
2011-07-09, 00:26:04,VALID,918.132,VALID,0,VALID,94.0882,VALID,0,VALID,20.5968,VALID,350,VALID,0.225391,
2011-07-09, 00:27:04,VALID,918.146,VALID,0,VALID,94.1721,VALID,0,VALID,20.5383,VALID,350,VALID,0.210938,
2011-07-09, 00:28:04,VALID,918.17,VALID,0,VALID,94.3245,VALID,0,VALID,20.4993,VALID,350,VALID,0.203516,
2011-07-09, 00:29:04,VALID,918.186,VALID,0,VALID,94.4313,VALID,0.107441,VALID,20.4603,VALID,350,VALID,0.275,
2011-07-09, 00:30:04,VALID,918.216,VALID,0,VALID,94.5227,VALID,0,VALID,20.3823,VALID,350,VALID,0.273438,
2011-07-09, 00:31:04,VALID,918.218,VALID,0,VALID,94.5609,VALID,0.107441,VALID,20.3433,VALID,350,VALID,0.223047,
2011-07-09, 00:32:04,VALID,918.204,VALID,0,VALID,94.8277,VALID,0,VALID,20.3238,VALID,350,VALID,0.224219,
2011-07-09, 00:33:04,VALID,918.209,VALID,0,VALID,95.1174,VALID,0,VALID,20.3433,VALID,350,VALID,0.327734,
2011-07-09, 00:34:04,VALID,918.197,VALID,0,VALID,95.2775,VALID,0.107441,VALID,20.3628,VALID,350,VALID,0.0277344,
2011-07-09, 00:35:04,VALID,918.225,VALID,0,VALID,95.3537,VALID,0.107441,VALID,20.3628,VALID,350,VALID,0,
2011-07-09, 00:36:04,VALID,918.216,VALID,0,VALID,95.3384,VALID,0.107441,VALID,20.3238,VALID,350,VALID,0,
2011-07-09, 00:37:04,VALID,918.224,VALID,0,VALID,95.2546,VALID,0,VALID,20.3253,VALID,350,VALID,0,
2011-07-09, 00:38:04,VALID,918.215,VALID,0,VALID,95.1326,VALID,0,VALID,20.2848,VALID,350,VALID,0.189063,
2011-07-09, 00:39:04,VALID,918.165,VALID,0,VALID,95.1326,VALID,0,VALID,20.2848,VALID,350,VALID,0.30625,
2011-07-09, 00:40:04,VALID,918.143,VALID,0,VALID,95.1783,VALID,0.107441,VALID,20.3043,VALID,350,VALID,0.298828,
2011-07-09, 00:41:04,VALID,918.095,VALID,0,VALID,95.1707,VALID,0.107441,VALID,20.3043,VALID,350,VALID,0.459766,
2011-07-09, 00:42:04,VALID,918.086,VALID,0,VALID,95.3689,VALID,0,VALID,20.3643,VALID,350,VALID,0.391406,
2011-07-09, 00:43:04,VALID,918.065,VALID,0,VALID,95.4833,VALID,0,VALID,20.4228,VALID,350,VALID,0.271484,
2011-07-09, 00:44:04,VALID,918.074,VALID,0,VALID,95.3461,VALID,0,VALID,20.4228,VALID,350,VALID,0.108984,
2011-07-09, 00:45:04,VALID,918.079,VALID,0,VALID,95.0488,VALID,0,VALID,20.3043,VALID,350,VALID,0,
2011-07-09, 00:46:04,VALID,918.058,VALID,0,VALID,95.2241,VALID,0,VALID,20.3433,VALID,350,VALID,0,
2011-07-09, 00:47:04,VALID,918.029,VALID,0,VALID,95.3613,VALID,0,VALID,20.3838,VALID,350,VALID,0,
2011-07-09, 00:48:04,VALID,918.065,VALID,0,VALID,95.4223,VALID,0,VALID,20.4033,VALID,350,VALID,0,
2011-07-09, 00:49:04,VALID,918.066,VALID,0,VALID,95.4757,VALID,0,VALID,20.4033,VALID,350,VALID,0,
2011-07-09, 00:50:04,VALID,918.062,VALID,0,VALID,95.4909,VALID,0.107441,VALID,20.3838,VALID,350,VALID,0,
2011-07-09, 00:51:04,VALID,918.086,VALID,0,VALID,95.4833,VALID,0,VALID,20.3643,VALID,350,VALID,0,
2011-07-09, 00:52:04,VALID,918.086,VALID,0,VALID,95.4299,VALID,0,VALID,20.3448,VALID,350,VALID,0.376563,
2011-07-09, 00:53:04,VALID,918.071,VALID,0,VALID,95.3766,VALID,0,VALID,20.3448,VALID,350,VALID,0.410937,
2011-07-09, 00:54:04,VALID,918.076,VALID,0,VALID,95.2775,VALID,0,VALID,20.2863,VALID,350,VALID,0.577344,
2011-07-09, 00:55:04,VALID,918.042,VALID,0,VALID,95.2317,VALID,0,VALID,20.2473,VALID,350,VALID,0.641797,
2011-07-09, 00:56:04,VALID,918.031,VALID,0,VALID,95.3384,VALID,0,VALID,20.2473,VALID,350,VALID,0.512109,
2011-07-09, 00:57:04,VALID,918.012,VALID,0,VALID,95.3842,VALID,0,VALID,20.2473,VALID,350,VALID,0.519531,
2011-07-09, 00:58:04,VALID,918.007,VALID,0,VALID,95.4375,VALID,0,VALID,20.2489,VALID,350,VALID,0.339453,
2011-07-09, 00:59:04,VALID,918.014,VALID,0,VALID,95.5671,VALID,0,VALID,20.2278,VALID,350,VALID,0.416016,
2011-07-09, 01:00:04,VALID,918.02,VALID,0,VALID,95.6434,VALID,0,VALID,20.2068,VALID,350,VALID,0.501562,
2011-07-09, 01:01:04,VALID,918.039,VALID,0,VALID,95.7806,VALID,0,VALID,20.2863,VALID,350,VALID,0.309766,
2011-07-09, 01:02:04,VALID,918.012,VALID,0,VALID,95.895,VALID,0,VALID,20.3269,VALID,350,VALID,0.369922,
2011-07-09, 01:03:04,VALID,918.033,VALID,0,VALID,95.9254,VALID,0,VALID,20.3269,VALID,349,VALID,0.526953,
2011-07-09, 01:04:04,VALID,918.024,VALID,0,VALID,96.0245,VALID,0,VALID,20.3058,VALID,349,VALID,0.539063,
2011-07-09, 01:05:04,VALID,918.026,VALID,0,VALID,96.0245,VALID,0,VALID,20.3464,VALID,349,VALID,0.0257812,
2011-07-09, 01:06:04,VALID,918.045,VALID,0,VALID,96.1008,VALID,0,VALID,20.3464,VALID,349,VALID,0.133594,
2011-07-09, 01:07:04,VALID,918.052,VALID,0,VALID,95.9788,VALID,0,VALID,20.2863,VALID,349,VALID,0,
2011-07-09, 01:08:04,VALID,918.039,VALID,0,VALID,95.9941,VALID,0,VALID,20.2293,VALID,349,VALID,0.0121094,
2011-07-09, 01:09:04,VALID,918.044,VALID,0,VALID,96.0627,VALID,0,VALID,20.2083,VALID,349,VALID,0,
2011-07-09, 01:10:04,VALID,918.059,VALID,0,VALID,96.1618,VALID,0,VALID,20.2293,VALID,349,VALID,0.245312,
2011-07-09, 01:11:04,VALID,918.041,VALID,0,VALID,96.2151,VALID,0,VALID,20.2489,VALID,349,VALID,0,
2011-07-09, 01:12:04,VALID,918.047,VALID,0,VALID,96.2761,VALID,0,VALID,20.2879,VALID,349,VALID,0,
2011-07-09, 01:13:04,VALID,918.053,VALID,0,VALID,96.3295,VALID,0,VALID,20.3464,VALID,349,VALID,0.254687,
2011-07-09, 01:14:04,VALID,918.051,VALID,0,VALID,96.3295,VALID,0,VALID,20.3464,VALID,349,VALID,0.140625,
2011-07-09, 01:15:04,VALID,918.04,VALID,0,VALID,96.3676,VALID,0,VALID,20.3253,VALID,349,VALID,0.320313,
2011-07-09, 01:16:04,VALID,918.021,VALID,0,VALID,96.3829,VALID,0,VALID,20.3643,VALID,349,VALID,0.170703,
2011-07-09, 01:17:04,VALID,918.052,VALID,0,VALID,96.4286,VALID,0,VALID,20.4049,VALID,349,VALID,0.181641,
2011-07-09, 01:18:04,VALID,918.022,VALID,0,VALID,96.4515,VALID,0,VALID,20.4033,VALID,349,VALID,0.167187,
2011-07-09, 01:19:04,VALID,918.004,VALID,0,VALID,96.4591,VALID,0,VALID,20.3838,VALID,349,VALID,0.375391,
2011-07-09, 01:20:04,VALID,918.013,VALID,0,VALID,96.4515,VALID,0,VALID,20.4033,VALID,349,VALID,0.463672,
2011-07-09, 01:21:04,VALID,917.988,VALID,0,VALID,96.4591,VALID,0,VALID,20.4244,VALID,349,VALID,0.287109,
2011-07-09, 01:22:04,VALID,917.962,VALID,0,VALID,96.4819,VALID,0,VALID,20.4228,VALID,349,VALID,0.201953,
2011-07-09, 01:23:04,VALID,917.949,VALID,0,VALID,96.4819,VALID,0,VALID,20.4228,VALID,349,VALID,0.376953,
2011-07-09, 01:24:04,VALID,917.938,VALID,0,VALID,96.4133,VALID,0,VALID,20.4033,VALID,349,VALID,0.203125,
2011-07-09, 01:25:04,VALID,917.902,VALID,0,VALID,96.3752,VALID,0,VALID,20.3238,VALID,349,VALID,0.21875,
2011-07-09, 01:26:04,VALID,917.931,VALID,0,VALID,96.3752,VALID,0,VALID,20.3464,VALID,349,VALID,0.0515625,
2011-07-09, 01:27:04,VALID,917.913,VALID,0,VALID,96.3752,VALID,0,VALID,20.2863,VALID,349,VALID,0,
2011-07-09, 01:28:04,VALID,917.884,VALID,0,VALID,96.4057,VALID,0,VALID,20.3074,VALID,349,VALID,0,
2011-07-09, 01:29:04,VALID,917.875,VALID,0,VALID,96.4819,VALID,0,VALID,20.3253,VALID,349,VALID,0.448828,
2011-07-09, 01:30:04,VALID,917.865,VALID,0,VALID,96.5353,VALID,0,VALID,20.3854,VALID,349,VALID,0.421484,
2011-07-09, 01:31:04,VALID,917.882,VALID,0,VALID,96.5506,VALID,0,VALID,20.4049,VALID,349,VALID,0.329297,
2011-07-09, 01:32:04,VALID,917.861,VALID,0,VALID,96.5658,VALID,0,VALID,20.4033,VALID,349,VALID,0.335547,
2011-07-09, 01:33:04,VALID,917.855,VALID,0,VALID,96.5429,VALID,0,VALID,20.4033,VALID,349,VALID,0.213672,
2011-07-09, 01:34:04,VALID,917.862,VALID,0,VALID,96.5506,VALID,0,VALID,20.4244,VALID,349,VALID,0,
2011-07-09, 01:35:04,VALID,917.862,VALID,0,VALID,96.5658,VALID,0,VALID,20.4033,VALID,349,VALID,0,
2011-07-09, 01:36:04,VALID,917.85,VALID,0,VALID,96.3752,VALID,0,VALID,20.3464,VALID,349,VALID,0,
2011-07-09, 01:37:04,VALID,917.848,VALID,0,VALID,96.3524,VALID,0,VALID,20.2473,VALID,349,VALID,0,
2011-07-09, 01:38:04,VALID,917.833,VALID,0,VALID,96.421,VALID,0,VALID,20.2473,VALID,349,VALID,0,
2011-07-09, 01:39:04,VALID,917.832,VALID,0,VALID,96.4591,VALID,0,VALID,20.2684,VALID,349,VALID,0,
2011-07-09, 01:40:04,VALID,917.812,VALID,0,VALID,96.5124,VALID,0,VALID,20.2473,VALID,349,VALID,0,
2011-07-09, 01:41:04,VALID,917.811,VALID,0,VALID,96.3524,VALID,0,VALID,20.2083,VALID,349,VALID,0,
2011-07-09, 01:42:04,VALID,917.815,VALID,0,VALID,96.3829,VALID,0.107441,VALID,20.1498,VALID,349,VALID,0.501562,
2011-07-09, 01:43:04,VALID,917.811,VALID,0,VALID,96.4362,VALID,0,VALID,20.1693,VALID,349,VALID,0.733594,
2011-07-09, 01:44:04,VALID,917.814,VALID,0,VALID,96.4667,VALID,0,VALID,20.1513,VALID,349,VALID,0.863672,
2011-07-09, 01:45:04,VALID,917.8,VALID,0,VALID,96.5277,VALID,0,VALID,20.1888,VALID,349,VALID,0.761719,
2011-07-09, 01:46:04,VALID,917.803,VALID,0,VALID,96.5353,VALID,0,VALID,20.1693,VALID,349,VALID,0.648438,
2011-07-09, 01:47:04,VALID,917.829,VALID,0,VALID,96.5658,VALID,0,VALID,20.1888,VALID,349,VALID,0.446094,
2011-07-09, 01:48:04,VALID,917.77,VALID,0,VALID,96.6039,VALID,0,VALID,20.2293,VALID,349,VALID,0.353516,
2011-07-09, 01:49:04,VALID,917.813,VALID,0,VALID,96.6344,VALID,0,VALID,20.2278,VALID,349,VALID,0.270312,
2011-07-09, 01:50:04,VALID,917.819,VALID,0,VALID,96.5734,VALID,0,VALID,20.2083,VALID,349,VALID,0.00546875,
2011-07-09, 01:51:04,VALID,917.851,VALID,0,VALID,96.5658,VALID,0,VALID,20.1888,VALID,349,VALID,0,
2011-07-09, 01:52:04,VALID,917.86,VALID,0,VALID,96.6497,VALID,0,VALID,20.2083,VALID,349,VALID,0,
2011-07-09, 01:53:04,VALID,917.829,VALID,0,VALID,96.6954,VALID,0,VALID,20.2489,VALID,349,VALID,0,
2011-07-09, 01:54:04,VALID,917.809,VALID,0,VALID,96.7107,VALID,0,VALID,20.2863,VALID,349,VALID,0,
2011-07-09, 01:55:04,VALID,917.799,VALID,0,VALID,96.703,VALID,0,VALID,20.3058,VALID,349,VALID,0,
2011-07-09, 01:56:04,VALID,917.765,VALID,0,VALID,96.6878,VALID,0,VALID,20.3253,VALID,349,VALID,0,
2011-07-09, 01:57:04,VALID,917.767,VALID,0,VALID,96.6802,VALID,0,VALID,20.3269,VALID,349,VALID,0,
2011-07-09, 01:58:04,VALID,917.747,VALID,0,VALID,96.6268,VALID,0,VALID,20.3058,VALID,349,VALID,0,
2011-07-09, 01:59:04,VALID,917.732,VALID,0,VALID,96.5353,VALID,0,VALID,20.2668,VALID,349,VALID,0,
2011-07-09, 02:00:04,VALID,917.707,VALID,0,VALID,96.5277,VALID,0,VALID,20.2293,VALID,349,VALID,0,
2011-07-09, 02:01:04,VALID,917.713,VALID,0,VALID,96.5201,VALID,0,VALID,20.1903,VALID,349,VALID,0,
2011-07-09, 02:02:05,VALID,917.721,VALID,0,VALID,96.5124,VALID,0,VALID,20.1498,VALID,349,VALID,0.0492188,
2011-07-09, 02:03:05,VALID,917.723,VALID,0,VALID,96.5429,VALID,0,VALID,20.1303,VALID,349,VALID,0.447266,
2011-07-09, 02:04:05,VALID,917.758,VALID,0,VALID,96.6039,VALID,0,VALID,20.1288,VALID,349,VALID,0.367969,
2011-07-09, 02:05:05,VALID,917.755,VALID,0,VALID,96.6268,VALID,0,VALID,20.1303,VALID,349,VALID,0.187109,
2011-07-09, 02:06:05,VALID,917.742,VALID,0,VALID,96.6649,VALID,0,VALID,20.1498,VALID,349,VALID,0.185937,
2011-07-09, 02:07:05,VALID,917.734,VALID,0,VALID,96.6878,VALID,0,VALID,20.1498,VALID,349,VALID,0.180078,
2011-07-09, 02:08:05,VALID,917.716,VALID,0,VALID,96.7183,VALID,0.107441,VALID,20.1483,VALID,349,VALID,0.148828,
2011-07-09, 02:09:05,VALID,917.721,VALID,0,VALID,96.6649,VALID,0.107441,VALID,20.1498,VALID,349,VALID,0.183984,
2011-07-09, 02:10:05,VALID,917.719,VALID,0,VALID,96.642,VALID,0,VALID,20.1498,VALID,349,VALID,0,
2011-07-09, 02:11:05,VALID,917.727,VALID,0,VALID,96.703,VALID,0.107441,VALID,20.1498,VALID,349,VALID,0,
2011-07-09, 02:12:05,VALID,917.738,VALID,0,VALID,96.7259,VALID,0,VALID,20.1498,VALID,349,VALID,0.146094,
2011-07-09, 02:13:05,VALID,917.712,VALID,0,VALID,96.7488,VALID,0,VALID,20.1888,VALID,349,VALID,0,
2011-07-09, 02:14:05,VALID,917.734,VALID,0,VALID,96.7335,VALID,0.107441,VALID,20.1678,VALID,349,VALID,0.259375,
2011-07-09, 02:15:05,VALID,917.738,VALID,0,VALID,96.6878,VALID,0.107441,VALID,20.1678,VALID,349,VALID,0.257422,
2011-07-09, 02:16:05,VALID,917.732,VALID,0,VALID,96.6573,VALID,0,VALID,20.1303,VALID,349,VALID,0.386328,
2011-07-09, 02:17:05,VALID,917.753,VALID,0,VALID,96.6344,VALID,0,VALID,20.1108,VALID,349,VALID,0.323828,
2011-07-09, 02:18:05,VALID,917.786,VALID,0,VALID,96.7183,VALID,0.107441,VALID,20.1108,VALID,349,VALID,0,
2011-07-09, 02:19:05,VALID,917.776,VALID,0,VALID,96.7107,VALID,0.107441,VALID,20.0898,VALID,349,VALID,0.174219,
2011-07-09, 02:20:05,VALID,917.786,VALID,0,VALID,96.7488,VALID,0,VALID,20.0913,VALID,349,VALID,0.0335938,
2011-07-09, 02:21:05,VALID,917.797,VALID,0,VALID,96.7183,VALID,0.107441,VALID,20.0718,VALID,349,VALID,0.198437,
2011-07-09, 02:22:05,VALID,917.745,VALID,0,VALID,96.7107,VALID,0,VALID,20.0523,VALID,349,VALID,0.275781,
2011-07-09, 02:23:05,VALID,917.753,VALID,0,VALID,96.7259,VALID,0,VALID,20.0118,VALID,349,VALID,0.339453,
2011-07-09, 02:24:05,VALID,917.747,VALID,0,VALID,96.7107,VALID,0,VALID,19.9923,VALID,349,VALID,0.385938,
2011-07-09, 02:25:05,VALID,917.784,VALID,0,VALID,96.7335,VALID,0,VALID,19.9743,VALID,349,VALID,0.270703,
2011-07-09, 02:26:05,VALID,917.785,VALID,0,VALID,96.7335,VALID,0,VALID,19.9743,VALID,349,VALID,0.194922,
2011-07-09, 02:27:05,VALID,917.749,VALID,0,VALID,96.7716,VALID,0,VALID,19.9743,VALID,349,VALID,0,
2011-07-09, 02:28:05,VALID,917.772,VALID,0,VALID,96.7488,VALID,0.107441,VALID,19.9533,VALID,349,VALID,0,
2011-07-09, 02:29:05,VALID,917.728,VALID,0,VALID,96.7945,VALID,0.107441,VALID,19.9548,VALID,349,VALID,0,
2011-07-09, 02:30:05,VALID,917.736,VALID,0,VALID,96.7793,VALID,0,VALID,19.9548,VALID,349,VALID,0,
2011-07-09, 02:31:05,VALID,917.711,VALID,0,VALID,96.6649,VALID,0,VALID,19.9158,VALID,349,VALID,0,
2011-07-09, 02:32:05,VALID,917.674,VALID,0,VALID,96.642,VALID,0,VALID,19.8363,VALID,349,VALID,0,
2011-07-09, 02:33:05,VALID,917.7,VALID,0,VALID,96.6725,VALID,0,VALID,19.8183,VALID,349,VALID,0.171484,
2011-07-09, 02:34:05,VALID,917.692,VALID,0,VALID,96.7107,VALID,0,VALID,19.8378,VALID,349,VALID,0.119531,
2011-07-09, 02:35:05,VALID,917.697,VALID,0,VALID,96.764,VALID,0,VALID,19.8183,VALID,349,VALID,0,
2011-07-09, 02:36:05,VALID,917.692,VALID,0,VALID,96.7259,VALID,0,VALID,19.8378,VALID,349,VALID,0.260938,
2011-07-09, 02:37:05,VALID,917.693,VALID,0,VALID,96.642,VALID,0,VALID,19.7583,VALID,349,VALID,0.232031,
2011-07-09, 02:38:05,VALID,917.709,VALID,0,VALID,96.5963,VALID,0,VALID,19.7013,VALID,349,VALID,0.270312,
2011-07-09, 02:39:05,VALID,917.687,VALID,0,VALID,96.6802,VALID,0,VALID,19.7013,VALID,349,VALID,0.481641,
2011-07-09, 02:40:05,VALID,917.699,VALID,0,VALID,96.6649,VALID,0,VALID,19.6623,VALID,349,VALID,0.823047,
2011-07-09, 02:41:05,VALID,917.688,VALID,0,VALID,96.886,VALID,0,VALID,19.7793,VALID,349,VALID,0.460156,
2011-07-09, 02:42:05,VALID,917.658,VALID,0,VALID,96.8555,VALID,0,VALID,19.7793,VALID,349,VALID,0.302734,
2011-07-09, 02:43:05,VALID,917.638,VALID,0,VALID,96.8631,VALID,0,VALID,19.8183,VALID,349,VALID,0.203125,
2011-07-09, 02:44:05,VALID,917.641,VALID,0,VALID,96.8936,VALID,0,VALID,19.8588,VALID,349,VALID,0,
2011-07-09, 02:45:05,VALID,917.628,VALID,0,VALID,96.8784,VALID,0,VALID,19.8378,VALID,349,VALID,0,
2011-07-09, 02:46:05,VALID,917.598,VALID,0,VALID,96.9241,VALID,0,VALID,19.8768,VALID,349,VALID,0,
2011-07-09, 02:47:05,VALID,917.589,VALID,0,VALID,96.947,VALID,0,VALID,19.9158,VALID,349,VALID,0,
2011-07-09, 02:48:05,VALID,917.597,VALID,0,VALID,96.8707,VALID,0,VALID,19.8963,VALID,349,VALID,0.194531,
2011-07-09, 02:49:05,VALID,917.573,VALID,0,VALID,96.8479,VALID,0,VALID,19.8963,VALID,349,VALID,0.557422,
2011-07-09, 02:50:05,VALID,917.59,VALID,0,VALID,96.8555,VALID,0,VALID,19.8963,VALID,349,VALID,0.267188,
2011-07-09, 02:51:05,VALID,917.565,VALID,0,VALID,96.8479,VALID,0,VALID,19.8768,VALID,349,VALID,0.29375,
2011-07-09, 02:52:05,VALID,917.556,VALID,0,VALID,96.8403,VALID,0,VALID,19.8768,VALID,349,VALID,0.213672,
2011-07-09, 02:53:05,VALID,917.57,VALID,0,VALID,96.8631,VALID,0,VALID,19.8573,VALID,349,VALID,0.210156,
2011-07-09, 02:54:05,VALID,917.529,VALID,0,VALID,96.8479,VALID,0,VALID,19.8573,VALID,349,VALID,0.290625,
2011-07-09, 02:55:05,VALID,917.532,VALID,0,VALID,96.8479,VALID,0,VALID,19.8378,VALID,349,VALID,0.423438,
2011-07-09, 02:56:05,VALID,917.519,VALID,0,VALID,96.8784,VALID,0,VALID,19.8378,VALID,349,VALID,0.553516,
2011-07-09, 02:57:05,VALID,917.532,VALID,0,VALID,96.886,VALID,0,VALID,19.8378,VALID,349,VALID,0.587109,
2011-07-09, 02:58:05,VALID,917.554,VALID,0,VALID,96.947,VALID,0,VALID,19.8573,VALID,349,VALID,0.611719,
2011-07-09, 02:59:05,VALID,917.584,VALID,0,VALID,96.9012,VALID,0,VALID,19.8573,VALID,349,VALID,0.527734,
2011-07-09, 03:00:05,VALID,917.613,VALID,0,VALID,96.8936,VALID,0,VALID,19.8168,VALID,349,VALID,0.439844,
2011-07-09, 03:01:05,VALID,917.634,VALID,0,VALID,96.9241,VALID,0.107441,VALID,19.8573,VALID,349,VALID,0.317969,
2011-07-09, 03:02:05,VALID,917.651,VALID,0,VALID,96.9546,VALID,0.107441,VALID,19.8573,VALID,349,VALID,0.25625,
2011-07-09, 03:03:05,VALID,917.631,VALID,0,VALID,96.9622,VALID,0.107441,VALID,19.8768,VALID,349,VALID,0.191406,
2011-07-09, 03:04:05,VALID,917.64,VALID,0,VALID,96.9394,VALID,0,VALID,19.8768,VALID,349,VALID,0.136328,
2011-07-09, 03:05:05,VALID,917.661,VALID,0,VALID,96.9317,VALID,0.107441,VALID,19.8768,VALID,349,VALID,0.0902344,
2011-07-09, 03:06:05,VALID,917.629,VALID,0,VALID,96.9394,VALID,0,VALID,19.8378,VALID,349,VALID,0.284375,
2011-07-09, 03:07:05,VALID,917.606,VALID,0,VALID,96.9317,VALID,0,VALID,19.8183,VALID,349,VALID,0.2375,
2011-07-09, 03:08:05,VALID,917.586,VALID,0,VALID,96.9394,VALID,0,VALID,19.7988,VALID,349,VALID,0.314844,
2011-07-09, 03:09:05,VALID,917.588,VALID,0,VALID,96.9165,VALID,0,VALID,19.7598,VALID,349,VALID,0.591406,
2011-07-09, 03:10:05,VALID,917.529,VALID,0,VALID,96.9241,VALID,0,VALID,19.7598,VALID,349,VALID,0.592969,
2011-07-09, 03:11:05,VALID,917.536,VALID,0,VALID,96.947,VALID,0,VALID,19.7598,VALID,349,VALID,0.740234,
2011-07-09, 03:12:05,VALID,917.524,VALID,0,VALID,96.947,VALID,0,VALID,19.7403,VALID,349,VALID,0.563672,
2011-07-09, 03:13:05,VALID,917.523,VALID,0,VALID,96.9317,VALID,0,VALID,19.7208,VALID,349,VALID,0.721094,
2011-07-09, 03:14:05,VALID,917.535,VALID,0,VALID,97.0003,VALID,0.107441,VALID,19.7598,VALID,349,VALID,0.810938,
2011-07-09, 03:15:05,VALID,917.506,VALID,0,VALID,97.0232,VALID,0,VALID,19.7793,VALID,349,VALID,0.783984,
2011-07-09, 03:16:05,VALID,917.503,VALID,0,VALID,97.008,VALID,0.107441,VALID,19.7793,VALID,349,VALID,0.610937,
2011-07-09, 03:17:05,VALID,917.511,VALID,0,VALID,97.0308,VALID,0,VALID,19.7583,VALID,349,VALID,0.669531,
2011-07-09, 03:18:05,VALID,917.51,VALID,0,VALID,97.008,VALID,0.107441,VALID,19.7793,VALID,349,VALID,0.59375,
2011-07-09, 03:19:05,VALID,917.491,VALID,0,VALID,97.0003,VALID,0,VALID,19.7583,VALID,349,VALID,0.780078,
2011-07-09, 03:20:05,VALID,917.52,VALID,0,VALID,97.0003,VALID,0,VALID,19.7793,VALID,349,VALID,0.812891,
2011-07-09, 03:21:05,VALID,917.509,VALID,0,VALID,96.9698,VALID,0,VALID,19.7403,VALID,349,VALID,1.09336,
2011-07-09, 03:22:05,VALID,917.53,VALID,0,VALID,96.9546,VALID,0.107441,VALID,19.7013,VALID,349,VALID,0.839063,
2011-07-09, 03:23:05,VALID,917.517,VALID,0,VALID,96.9317,VALID,0,VALID,19.6413,VALID,349,VALID,0.872266,
2011-07-09, 03:24:05,VALID,917.484,VALID,0,VALID,96.9851,VALID,0,VALID,19.6818,VALID,349,VALID,0.983594,
2011-07-09, 03:25:05,VALID,917.476,VALID,0,VALID,97.008,VALID,0.107441,VALID,19.7013,VALID,350,VALID,0.813672,
2011-07-09, 03:26:05,VALID,917.449,VALID,0,VALID,97.0003,VALID,0,VALID,19.6818,VALID,167,VALID,0.820703,
2011-07-09, 03:27:05,VALID,917.445,VALID,0,VALID,97.008,VALID,0,VALID,19.6818,VALID,167,VALID,0.252734,
2011-07-09, 03:28:05,VALID,917.449,VALID,0,VALID,97.0156,VALID,0.107441,VALID,19.6608,VALID,166,VALID,0.543359,
2011-07-09, 03:29:05,VALID,917.456,VALID,0,VALID,96.9851,VALID,0,VALID,19.6638,VALID,167,VALID,0.574219,
2011-07-09, 03:30:05,VALID,917.449,VALID,0,VALID,97.0156,VALID,0,VALID,19.6218,VALID,167,VALID,0.450391,
2011-07-09, 03:31:05,VALID,917.489,VALID,0,VALID,97.0461,VALID,0,VALID,19.6428,VALID,167,VALID,0.732813,
2011-07-09, 03:32:05,VALID,917.486,VALID,0,VALID,97.0385,VALID,0,VALID,19.6623,VALID,167,VALID,0.816406,
2011-07-09, 03:33:05,VALID,917.509,VALID,0,VALID,97.069,VALID,0,VALID,19.6818,VALID,167,VALID,0.964844,
2011-07-09, 03:34:05,VALID,917.477,VALID,0,VALID,97.0766,VALID,0.107441,VALID,19.6803,VALID,167,VALID,0.762891,
2011-07-09, 03:35:05,VALID,917.47,VALID,0,VALID,97.0842,VALID,0,VALID,19.7013,VALID,167,VALID,0.926953,
2011-07-09, 03:36:05,VALID,917.486,VALID,0,VALID,97.069,VALID,0,VALID,19.7208,VALID,167,VALID,0.450781,
2011-07-09, 03:37:05,VALID,917.475,VALID,0,VALID,97.0766,VALID,0,VALID,19.7418,VALID,167,VALID,0.446875,
2011-07-09, 03:38:05,VALID,917.509,VALID,0,VALID,97.0994,VALID,0,VALID,19.7403,VALID,167,VALID,0.241406,
2011-07-09, 03:39:05,VALID,917.529,VALID,0,VALID,97.0918,VALID,0,VALID,19.7403,VALID,166,VALID,0.563281,
2011-07-09, 03:40:05,VALID,917.534,VALID,0,VALID,97.0918,VALID,0,VALID,19.7403,VALID,167,VALID,0.405859,
2011-07-09, 03:41:05,VALID,917.525,VALID,0,VALID,97.0918,VALID,0,VALID,19.7403,VALID,167,VALID,0.608594,
2011-07-09, 03:42:05,VALID,917.535,VALID,0,VALID,97.0766,VALID,0,VALID,19.7598,VALID,167,VALID,0.747656,
2011-07-09, 03:43:05,VALID,917.558,VALID,0,VALID,97.0918,VALID,0,VALID,19.7403,VALID,167,VALID,0.960547,
2011-07-09, 03:44:05,VALID,917.563,VALID,0,VALID,97.0918,VALID,0,VALID,19.7403,VALID,167,VALID,1.05742,
2011-07-09, 03:45:05,VALID,917.585,VALID,0,VALID,97.1071,VALID,0,VALID,19.7163,VALID,167,VALID,0.920703,